Burlington, CO

4:05 PM MST on November 24, 2017 (GMT -0700)
Kit Carson County

Weather History for KITR - January, 2013

Change the Weather History Date:

Saturday, January 12, 2013

  Actual Average Record
Temperature  
Mean Temperature 11 °F 29 °F  
Max Temperature 21 °F 42 °F 75 °F (1953)
Min Temperature 1 °F 17 °F -20 °F (1963)
Degree Days  
Heating Degree Days 55    
Moisture  
Dew Point 2 °F    
Average Humidity 70    
Maximum Humidity 84    
Minimum Humidity 48    
Precipitation  
Precipitation 0.00 in 0.01 in 0.10 in (1984)
Month to date precipitation T 0.11  
Year to date precipitation T 0.11  
Sea Level Pressure  
Sea Level Pressure 30.08 in    
Wind  
Wind Speed 9 mph (NNW)    
Max Wind Speed 18 mph    
Max Gust Speed 25 mph    
Visibility 10 miles    
Events      
T = Trace of Precipitation, MM = Missing Value Source: NWS Daily Summary

Daily Weather History Graph

Daily Weather History Graph

Search for Another Location

Airport or City:

Trip Planner

Search our weather history database for the weather conditions in past years. The results will help you decide how hot, cold, wet, or windy it might be!

Date:

Astronomy

Jan. 12, 2013 Rise Set
Actual Time 7:07 AM MST 4:47 PM MST
Civil Twilight 6:38 AM MST 5:17 PM MST
Nautical Twilight 6:05 AM MST 5:50 PM MST
Astronomical Twilight 5:33 AM MST 6:22 PM MST
Moon 7:29 AM MST (1/12) 6:18 PM MST (1/12)
Length of Visible Light 10h 38m
Length of Day
9h 39m
New Moon, 1% of the Moon is Illuminated
Jan 12
New Moon
Jan 18
First Quarter
Jan 26
Full
Feb 3
Last Quarter
Feb 10
New

Hourly Weather History & Observations

Time (MST) Temp. Windchill Dew Point Humidity Pressure Visibility Wind Dir Wind Speed Gust Speed Precip Events Conditions
12:53 AM 9.0 °F -2.2 °F 3.0 °F 77% 29.93 in 10.0 mi NE 6.9 mph - N/A   Clear
1:53 AM 8.1 °F -3.2 °F 1.9 °F 76% 29.87 in 10.0 mi NNW 6.9 mph - N/A   Clear
2:53 AM 7.0 °F -7.5 °F 1.9 °F 80% 29.87 in 10.0 mi NNW 10.4 mph - N/A   Clear
3:53 AM 8.1 °F -3.2 °F 1.0 °F 73% 30.00 in 10.0 mi NNW 6.9 mph - N/A   Clear
4:53 AM 7.0 °F -4.5 °F -0.0 °F 73% 29.89 in 10.0 mi North 6.9 mph - N/A   Clear
5:53 AM 3.0 °F -10.5 °F -2.0 °F 80% 30.08 in 10.0 mi NNW 8.1 mph - N/A   Clear
6:53 AM 5.0 °F -6.9 °F -0.9 °F 76% 29.95 in 10.0 mi NNW 6.9 mph - N/A   Clear
7:53 AM 5.0 °F -8.1 °F -0.9 °F 76% 30.16 in 10.0 mi WNW 8.1 mph - N/A   Clear
8:53 AM 12.0 °F -3.4 °F 1.9 °F 64% 30.17 in 10.0 mi NNW 13.8 mph - N/A   Overcast
9:53 AM 14.0 °F -0.2 °F 3.0 °F 62% 30.17 in 10.0 mi NNW 12.7 mph - N/A   Overcast
10:53 AM 17.1 °F 2.5 °F 3.9 °F 56% 30.14 in 10.0 mi NNW 15.0 mph 25.3 mph N/A   Clear
11:53 AM 19.0 °F 4.0 °F 3.9 °F 52% 30.11 in 10.0 mi NNW 17.3 mph - N/A   Clear
12:53 PM 19.9 °F 4.8 °F 3.9 °F 50% 30.09 in 10.0 mi North 18.4 mph 23.0 mph N/A   Clear
1:53 PM 19.9 °F 5.2 °F 3.0 °F 48% 30.09 in 10.0 mi NNW 17.3 mph 23.0 mph N/A   Clear
2:53 PM - - - N/A% 29.95 in - North - - N/A   Unknown
3:53 PM 19.0 °F 6.1 °F 3.9 °F 52% 30.12 in 10.0 mi North 12.7 mph - N/A   Clear
4:53 PM 16.0 °F - 3.0 °F 57% 30.15 in - North - - N/A   Unknown
6:53 PM 9.0 °F - 3.0 °F 77% 30.21 in - North - - N/A   Unknown
7:53 PM - - - N/A% 30.01 in - North - - N/A   Unknown
8:53 PM 6.1 °F - 1.9 °F 83% 30.22 in - North - - N/A   Unknown
9:53 PM 5.0 °F -5.6 °F 1.0 °F 84% 30.22 in 10.0 mi NNW 5.8 mph - N/A   Unknown
10:53 PM 1.9 °F -10.6 °F -2.0 °F 83% 30.24 in 10.0 mi NW 6.9 mph - N/A   Clear
11:53 PM 1.0 °F -11.7 °F -2.9 °F 83% 30.22 in - NW 6.9 mph - N/A   Unknown